Location: Heathcote
(40.9845°N, 73.7746°W)
Time: 04:07:44
(UTC+00:00)

Cosmos 1980 Rocket - Pass Details

Date: 29 October 2020
Orbit: 831 x 848 km, 71.0° (Epoch: 23 November)

Event Time Altitude Azimuth Distance (km) Brightness Sun altitude
Rises 22:33:48 0° 162° (SSE) 3,377 5.3 -8.1°
Reaches altitude 10° 22:36:49 10° 146° (SE) 2,444 4.4 -8.7°
Maximum altitude 22:40:49 20° 100° (E) 1,826 3.4 -9.4°
Drops below altitude 10° 22:44:49 10° 54° (NE) 2,449 4.1 -10.2°
Enters shadow 22:45:02 - 53° (NE) 2,507 4.1 -10.2°
